(°C)
-1°
(°C)
-4°
-3°
-1°
N
N
N
NNE
NNE
NNE
NNE
(km/h)
3-17
3-15
4-14
4-12
5-12
6-13
6-13
(mm)
0
0
0
0
0
0
0
(%)
0
0
0
0
0
0
0

Elevação do sol

/ 11.9°
sun-icon
UV 2
07:44
18:17
Crescente gibosa (132°)
17:38
01:45

METAR para 55.27°N 86.11°L (UNEE)

Hora Condições Temperatura/
Ponto de condensação
Vento Visibilidade Tempo Nuvens Pressão Mudança Bruto
MVFR -1°C / -5°C 330º 8kt 8000m - Clear 1030 No Significant change UNEE 160200Z 33004MPS 8000 NSC M01/M05 Q1030 R23/CLRD60 NOSIG RMK QFE749
VFR -2°C / -5°C 310º 6kt >10km - Clear 1030 No Significant change UNEE 160130Z 31003MPS 9999 NSC M02/M05 Q1030 R23/CLRD60 NOSIG RMK QFE749
VFR -3°C / -6°C 310º 8kt >10km - Clear 1030 No Significant change UNEE 160100Z 31004MPS 9999 NSC M03/M06 Q1030 R23/CLRD60 NOSIG RMK QFE749
VFR -3°C / -6°C 320º 6kt >10km - Clouds and Visibility OK 1030 No Significant change UNEE 160030Z 32003MPS CAVOK M03/M06 Q1030 R23/CLRD60 NOSIG RMK QFE749
VFR -2°C / -5°C 320º 2kt 9000m - Clear 1030 No Significant change UNEE 160000Z 32001MPS 9000 NSC M02/M05 Q1030 R05/CLRD60 NOSIG RMK QFE750
VFR -3°C / -5°C 330º 2kt >10km - Clouds and Visibility OK 1031 No Significant change UNEE 152330Z 33001MPS CAVOK M03/M05 Q1031 R05/CLRD60 NOSIG RMK QFE750
VFR -3°C / -5°C variable 0kt >10km - Clear 1031 No Significant change UNEE 152300Z 00000MPS 9999 NSC M03/M05 Q1031 R05/CLRD60 NOSIG RMK QFE750
MVFR -3°C / -6°C 300º 6kt 8000m - Clear 1031 No Significant change UNEE 152230Z 30003MPS 8000 NSC M03/M06 Q1031 R23/CLRD60 NOSIG RMK QFE750
VFR -3°C / -6°C 320º 8kt >10km - Clear 1031 No Significant change UNEE 152200Z 32004MPS 9999 NSC M03/M06 Q1031 R23/CLRD60 NOSIG RMK QFE750
VFR -2°C / -6°C 330º 6kt 9000m - Clear 1031 No Significant change UNEE 152130Z 33003MPS 9000 NSC M02/M06 Q1031 R23/CLRD60 NOSIG RMK QFE750
VFR -2°C / -6°C 320º 8kt >10km - Clouds and Visibility OK 1032 No Significant change UNEE 152100Z 32004MPS CAVOK M02/M06 Q1032 R23/CLRD60 NOSIG RMK QFE750
VFR -1°C / -6°C 340º 8kt >10km - Clouds and Visibility OK 1032 No Significant change UNEE 152030Z 34004MPS CAVOK M01/M06 Q1032 R23/CLRD60 NOSIG RMK QFE750
VFR -1°C / -6°C 340º 8kt >10km - Clouds and Visibility OK 1032 No Significant change UNEE 152000Z 34004MPS CAVOK M01/M06 Q1032 R23/CLRD60 NOSIG RMK QFE751
VFR -1°C / -6°C 340º 8kt >10km - Clouds and Visibility OK 1032 No Significant change UNEE 151930Z 34004MPS CAVOK M01/M06 Q1032 R23/CLRD60 NOSIG RMK QFE751
VFR -1°C / -6°C 340º 8kt 9000m - Clear 1032 No Significant change UNEE 151900Z 34004MPS 9000 NSC M01/M06 Q1032 R23/CLRD60 NOSIG RMK QFE751
VFR -1°C / -6°C 330º 6kt >10km - Clear 1033 No Significant change UNEE 151830Z 33003MPS 9999 NSC M01/M06 Q1033 R23/CLRD60 NOSIG RMK QFE751
VFR -1°C / -5°C 330º 8kt >10km - Clear 1033 No Significant change UNEE 151800Z 33004MPS 9999 NSC M01/M05 Q1033 R23/CLRD60 NOSIG RMK QFE751
VFR 0°C / -5°C 320º 6kt >10km - Clear 1033 No Significant change UNEE 151730Z 32003MPS 9999 NSC M00/M05 Q1033 R23/CLRD60 NOSIG RMK QFE752
VFR 0°C / -6°C 340º 2kt >10km - Clouds and Visibility OK 1034 No Significant change UNEE 151700Z 34001MPS CAVOK 00/M06 Q1034 R05/CLRD60 NOSIG RMK QFE752
VFR 0°C / -5°C 350º 2kt >10km - Clouds and Visibility OK 1034 No Significant change UNEE 151630Z 35001MPS CAVOK 00/M05 Q1034 R05/CLRD60 NOSIG RMK QFE752
VFR 1°C / -6°C 360º 4kt >10km - Clouds and Visibility OK 1034 No Significant change UNEE 151600Z 36002MPS CAVOK 01/M06 Q1034 R05/CLRD60 NOSIG RMK QFE753
VFR 2°C / -6°C 360º 4kt >10km - Clouds and Visibility OK 1034 No Significant change UNEE 151530Z 36002MPS CAVOK 02/M06 Q1034 R23/CLRD60 NOSIG RMK QFE752
VFR 2°C / -6°C 350º 6kt >10km - Clouds and Visibility OK 1034 No Significant change UNEE 151500Z 35003MPS CAVOK 02/M06 Q1034 R23/CLRD60 NOSIG RMK QFE752
VFR 2°C / -6°C 360º 6kt >10km - Clouds and Visibility OK 1035 No Significant change UNEE 151430Z 36003MPS CAVOK 02/M06 Q1035 R23/CLRD60 NOSIG RMK QFE753

MVFR

-1°C / -5°C

[Mais]
Vento 330º 8kt
Visibilidade 8000m
Tempo -
Nuvens Clear
Pressão 1030
Mudança No Significant change
Bruto UNEE 160200Z 33004MPS 8000 NSC M01/M05 Q1030 R23/CLRD60 NOSIG RMK QFE749

VFR

-2°C / -5°C

[Mais]
Vento 310º 6kt
Visibilidade >10km
Tempo -
Nuvens Clear
Pressão 1030
Mudança No Significant change
Bruto UNEE 160130Z 31003MPS 9999 NSC M02/M05 Q1030 R23/CLRD60 NOSIG RMK QFE749

VFR

-3°C / -6°C

[Mais]
Vento 310º 8kt
Visibilidade >10km
Tempo -
Nuvens Clear
Pressão 1030
Mudança No Significant change
Bruto UNEE 160100Z 31004MPS 9999 NSC M03/M06 Q1030 R23/CLRD60 NOSIG RMK QFE749

VFR

-3°C / -6°C

[Mais]
Vento 320º 6kt
Visibilidade >10km
Tempo -
Nuvens Clouds and Visibility OK
Pressão 1030
Mudança No Significant change
Bruto UNEE 160030Z 32003MPS CAVOK M03/M06 Q1030 R23/CLRD60 NOSIG RMK QFE749

VFR

-2°C / -5°C

[Mais]
Vento 320º 2kt
Visibilidade 9000m
Tempo -
Nuvens Clear
Pressão 1030
Mudança No Significant change
Bruto UNEE 160000Z 32001MPS 9000 NSC M02/M05 Q1030 R05/CLRD60 NOSIG RMK QFE750

VFR

-3°C / -5°C

[Mais]
Vento 330º 2kt
Visibilidade >10km
Tempo -
Nuvens Clouds and Visibility OK
Pressão 1031
Mudança No Significant change
Bruto UNEE 152330Z 33001MPS CAVOK M03/M05 Q1031 R05/CLRD60 NOSIG RMK QFE750

VFR

-3°C / -5°C

[Mais]
Vento variable 0kt
Visibilidade >10km
Tempo -
Nuvens Clear
Pressão 1031
Mudança No Significant change
Bruto UNEE 152300Z 00000MPS 9999 NSC M03/M05 Q1031 R05/CLRD60 NOSIG RMK QFE750

MVFR

-3°C / -6°C

[Mais]
Vento 300º 6kt
Visibilidade 8000m
Tempo -
Nuvens Clear
Pressão 1031
Mudança No Significant change
Bruto UNEE 152230Z 30003MPS 8000 NSC M03/M06 Q1031 R23/CLRD60 NOSIG RMK QFE750

VFR

-3°C / -6°C

[Mais]
Vento 320º 8kt
Visibilidade >10km
Tempo -
Nuvens Clear
Pressão 1031
Mudança No Significant change
Bruto UNEE 152200Z 32004MPS 9999 NSC M03/M06 Q1031 R23/CLRD60 NOSIG RMK QFE750

VFR

-2°C / -6°C

[Mais]
Vento 330º 6kt
Visibilidade 9000m
Tempo -
Nuvens Clear
Pressão 1031
Mudança No Significant change
Bruto UNEE 152130Z 33003MPS 9000 NSC M02/M06 Q1031 R23/CLRD60 NOSIG RMK QFE750

VFR

-2°C / -6°C

[Mais]
Vento 320º 8kt
Visibilidade >10km
Tempo -
Nuvens Clouds and Visibility OK
Pressão 1032
Mudança No Significant change
Bruto UNEE 152100Z 32004MPS CAVOK M02/M06 Q1032 R23/CLRD60 NOSIG RMK QFE750

VFR

-1°C / -6°C

[Mais]
Vento 340º 8kt
Visibilidade >10km
Tempo -
Nuvens Clouds and Visibility OK
Pressão 1032
Mudança No Significant change
Bruto UNEE 152030Z 34004MPS CAVOK M01/M06 Q1032 R23/CLRD60 NOSIG RMK QFE750

VFR

-1°C / -6°C

[Mais]
Vento 340º 8kt
Visibilidade >10km
Tempo -
Nuvens Clouds and Visibility OK
Pressão 1032
Mudança No Significant change
Bruto UNEE 152000Z 34004MPS CAVOK M01/M06 Q1032 R23/CLRD60 NOSIG RMK QFE751

VFR

-1°C / -6°C

[Mais]
Vento 340º 8kt
Visibilidade >10km
Tempo -
Nuvens Clouds and Visibility OK
Pressão 1032
Mudança No Significant change
Bruto UNEE 151930Z 34004MPS CAVOK M01/M06 Q1032 R23/CLRD60 NOSIG RMK QFE751

VFR

-1°C / -6°C

[Mais]
Vento 340º 8kt
Visibilidade 9000m
Tempo -
Nuvens Clear
Pressão 1032
Mudança No Significant change
Bruto UNEE 151900Z 34004MPS 9000 NSC M01/M06 Q1032 R23/CLRD60 NOSIG RMK QFE751

VFR

-1°C / -6°C

[Mais]
Vento 330º 6kt
Visibilidade >10km
Tempo -
Nuvens Clear
Pressão 1033
Mudança No Significant change
Bruto UNEE 151830Z 33003MPS 9999 NSC M01/M06 Q1033 R23/CLRD60 NOSIG RMK QFE751

VFR

-1°C / -5°C

[Mais]
Vento 330º 8kt
Visibilidade >10km
Tempo -
Nuvens Clear
Pressão 1033
Mudança No Significant change
Bruto UNEE 151800Z 33004MPS 9999 NSC M01/M05 Q1033 R23/CLRD60 NOSIG RMK QFE751

VFR

0°C / -5°C

[Mais]
Vento 320º 6kt
Visibilidade >10km
Tempo -
Nuvens Clear
Pressão 1033
Mudança No Significant change
Bruto UNEE 151730Z 32003MPS 9999 NSC M00/M05 Q1033 R23/CLRD60 NOSIG RMK QFE752

VFR

0°C / -6°C

[Mais]
Vento 340º 2kt
Visibilidade >10km
Tempo -
Nuvens Clouds and Visibility OK
Pressão 1034
Mudança No Significant change
Bruto UNEE 151700Z 34001MPS CAVOK 00/M06 Q1034 R05/CLRD60 NOSIG RMK QFE752

VFR

0°C / -5°C

[Mais]
Vento 350º 2kt
Visibilidade >10km
Tempo -
Nuvens Clouds and Visibility OK
Pressão 1034
Mudança No Significant change
Bruto UNEE 151630Z 35001MPS CAVOK 00/M05 Q1034 R05/CLRD60 NOSIG RMK QFE752

VFR

1°C / -6°C

[Mais]
Vento 360º 4kt
Visibilidade >10km
Tempo -
Nuvens Clouds and Visibility OK
Pressão 1034
Mudança No Significant change
Bruto UNEE 151600Z 36002MPS CAVOK 01/M06 Q1034 R05/CLRD60 NOSIG RMK QFE753

VFR

2°C / -6°C

[Mais]
Vento 360º 4kt
Visibilidade >10km
Tempo -
Nuvens Clouds and Visibility OK
Pressão 1034
Mudança No Significant change
Bruto UNEE 151530Z 36002MPS CAVOK 02/M06 Q1034 R23/CLRD60 NOSIG RMK QFE752

VFR

2°C / -6°C

[Mais]
Vento 350º 6kt
Visibilidade >10km
Tempo -
Nuvens Clouds and Visibility OK
Pressão 1034
Mudança No Significant change
Bruto UNEE 151500Z 35003MPS CAVOK 02/M06 Q1034 R23/CLRD60 NOSIG RMK QFE752

VFR

2°C / -6°C

[Mais]
Vento 360º 6kt
Visibilidade >10km
Tempo -
Nuvens Clouds and Visibility OK
Pressão 1035
Mudança No Significant change
Bruto UNEE 151430Z 36003MPS CAVOK 02/M06 Q1035 R23/CLRD60 NOSIG RMK QFE753

TAF para 55.27°N 86.11°L (UNEE)

From till


From till Wind 350º 6kt. Gust 16kt. Visibility 8000m. Scattered Clouds 4000ft.
Temporarly from till Visibility 305.775m. freezing Fog . Broken Clouds 100ft.
Temporarly from till Wind 30º 10kt. Gust 19kt.

Bruto: TAF UNEE 152300Z 1600/1624 35003G08MPS 8000 SCT040 TEMPO 1600/1603 0300 FZFG BKN001 TEMPO 1605/1612 03005G10MPS

Imagens atuais de satélite e precipitação para 55.27°N 86.11°L

O marcador de lugar é colocado em 55.27°N 86.11°L. [Mais]

A imagem de satélite em tempo real combina luz visível durante o dia com radiação infravermelha durante a noite. À noite, a imagem não é escura, pois a radiação infravermelha pode detectar diferenças de temperatura. Infelizmente, nuvens baixas e neblina são difíceis de distinguir das temperaturas do solo e, portanto, podem ser quase invisíveis durante a noite. As imagens de satélite Meteosat para a Europa são atualizadas em tempo real a cada 5 minutos. GOES-16/GOES-17 ( América do Norte e do Sul) e Himawari (Ásia) são atualizadas a cada 10 minutos.

Copyright 2021 EUMETSAT / meteoblue. / Copyright 2021 meteoblue

Radar e precipitação nowcast para 55.27°N 86.11°L

Chuvisco
Leve
Moderado
Forte
Muito forte
Granizo

O marcador do lugar é colocado em 55.27°N 86.11°L. Esta animação mostra o radar de precipitação para a última hora, assim como a 1h previsão. A queda de neve pode ser invisível para o radar. A intensidade da precipitação é codificada por cores, variando do azul claro ao laranja.